2021-061D (49006 NORAD) Tracking and Keplerian Element Data

This shows tracking and keplerian element data for the satellite.

Feedback or suggestion? Click here.




ElementValue
Catalog49006
Name2021-061D
Epoch Orbit1282
Epoch Day269.12519833
Epoch Year2021
RAAN334.9726
Inclination97.53
Eccentricity0.0012868
Argument of Perigee1.1946
Mean Anonmoly55.3205
Mean Motion15.10022971
Decay Rate1.388E-05
L11 49006U 21061D 21269.12519833 .00001388 00000-0 89134-4 0 9990
L22 49006 97.5300 334.9726 0012868 1.1946 55.3205 15.10022971 12826

Live tracking and technical data element details for 2021-061D (NORAD 49006). 2021-061D can be tracked NOW for your location showing map with azimuth and elevation plus other details from your city location.

Track the satellite on the map from your city or location and see movement details for azimuth, elevation, latitude, longitude, range, height, and movement on the map or in text.







IsCatalogInMostPopularTable: catalog: 49006, numindb: 15
Update: records affected: 1



GetName: 49006 2021-061D

Hit Count: updated at: Sun, 26 Sep 2021 15:40:35 GMT